"Timestamp","TZ","WindDir_Mean (deg)","WindSpd_Mean (km/h)","WindSpd_Min (km/h)","WindSpd_Max (km/h)","Temp_Mean (deg)","RH_Mean (%)","MSLP_Mean (hPa)","Rain_Acc (mm)","Rain_Intensity (mm/h)","Hail_Acc (hits/cm2)","Hail_Intensity (hits/cm2hr)","Solar_Mean (W/m2)"
2018/03/23 00:00:00.006,n,174,4.68,3.24,5.76,20.4,88.3,1017.62,0,0,0,0,0.030479
2018/03/23 00:01:00.000,n,220,3.96,2.52,5.04,20.4,88.4,1017.62,0,0,0,0,0.030479
2018/03/23 00:02:00.000,n,208,2.52,2.16,2.88,20.4,88.3,1017.62,0,0,0,0,0.027008
2018/03/23 00:03:00.000,n,217,3.24,3.24,3.6,20.4,88.3,1017.62,0,0,0,0,0.029602
2018/03/23 00:04:00.000,n,202,3.96,3.6,4.32,20.4,88.4,1017.62,0,0,0,0,0.029602
2018/03/23 00:05:00.008,n,196,3.96,2.52,5.04,20.4,88.3,1017.62,0,0,0,0,0.027847
2018/03/23 00:06:00.006,n,225,3.24,2.88,3.24,20.4,88.3,1017.52,0,0,0,0,0.027847
2018/03/23 00:07:00.003,n,228,2.52,2.16,2.88,20.4,88.4,1017.52,0,0,0,0,0.027847
2018/03/23 00:08:00.000,n,151,5.4,4.68,6.12,20.4,88.4,1017.52,0,0,0,0,0.029602
2018/03/23 00:09:00.013,n,181,2.88,2.52,3.24,20.4,88.4,1017.52,0,0,0,0,0.025253
2018/03/23 00:10:00.000,n,172,3.24,2.88,3.6,20.4,88.6,1017.52,0,0,0,0,0.031357
2018/03/23 00:11:00.000,n,173,5.76,4.68,7.92,20.4,88.4,1017.52,0,0,0,0,0.028725
2018/03/23 00:12:00.004,n,195,4.32,3.6,5.04,20.4,88.4,1017.52,0,0,0,0,0.027008
2018/03/23 00:13:00.001,n,231,2.16,1.44,2.88,20.4,88.5,1017.52,0,0,0,0,0.034828
2018/03/23 00:14:00.000,n,201,2.88,0.36,4.32,20.4,88.5,1017.52,0,0,0,0,0.030479
2018/03/23 00:15:00.000,n,181,6.48,6.12,6.84,20.4,88.4,1017.52,0,0,0,0,0.029602
2018/03/23 00:16:00.010,n,164,3.96,2.52,6.84,20.4,88.5,1017.42,0,0,0,0,0.031357
2018/03/23 00:17:00.007,n,121,0.36,0.36,0.72,20.4,88.5,1017.42,0,0,0,0,0.029602
2018/03/23 00:18:00.005,n,223,2.52,2.16,2.88,20.4,88.5,1017.42,0,0,0,0,0.029602
2018/03/23 00:19:00.002,n,223,3.6,3.24,3.6,20.4,88.5,1017.42,0,0,0,0,0.025253
2018/03/23 00:20:00.005,n,221,3.24,2.88,3.96,20.4,88.5,1017.42,0,0,0,0,0.027847
2018/03/23 00:21:00.004,n,237,3.24,2.52,3.6,20.4,88.5,1017.42,0,0,0,0,0.026131
2018/03/23 00:22:00.001,n,177,2.88,1.8,3.6,20.4,88.6,1017.42,0,0,0,0,0.029602
2018/03/23 00:23:00.000,n,162,5.76,3.24,7.2,20.4,88.7,1017.42,0,0,0,0,0.033073
2018/03/23 00:24:00.010,n,164,5.76,5.04,6.84,20.4,88.6,1017.42,0,0,0,0,0.030479
2018/03/23 00:25:00.007,n,157,6.48,5.4,7.56,20.4,88.5,1017.42,0,0,0,0,0.025253
2018/03/23 00:26:00.005,n,241,0.72,0.36,1.8,20.4,88.8,1017.42,0,0,0,0,0.026131
2018/03/23 00:27:00.002,n,164,7.92,7.2,8.28,20.4,88.6,1017.42,0,0,0,0,0.025253
2018/03/23 00:28:00.000,n,176,5.76,5.4,6.48,20.4,88.6,1017.42,0,0,0,0,0.025253
2018/03/23 00:29:00.000,n,163,9.36,9.36,9.72,20.3,88.6,1017.42,0,0,0,0,0.027008
2018/03/23 00:30:00.000,n,188,6.84,5.76,7.56,20.3,88.7,1017.42,0,0,0,0,0.026131
2018/03/23 00:31:00.006,n,158,5.4,5.04,5.76,20.3,88.7,1017.42,0,0,0,0,0.027847
2018/03/23 00:32:00.003,n,168,6.48,6.12,7.2,20.4,88.7,1017.42,0,0,0,0,0.027847
2018/03/23 00:33:00.000,n,179,7.56,7.2,7.92,20.3,88.7,1017.42,0,0,0,0,0.029602
2018/03/23 00:34:00.000,n,168,5.76,4.68,6.48,20.4,88.7,1017.32,0,0,0,0,0.028725
2018/03/23 00:35:00.010,n,181,9.36,8.28,9.72,20.3,88.6,1017.42,0,0,0,0,0.028725
2018/03/23 00:36:00.007,n,193,5.76,4.68,6.84,20.3,88.7,1017.42,0,0,0,0,0.031357
2018/03/23 00:37:00.000,n,142,5.76,5.4,6.12,20.3,88.7,1017.42,0,0,0,0,0.028725
2018/03/23 00:38:00.000,n,175,5.76,4.68,6.84,20.4,88.8,1017.42,0,0,0,0,0.028725
2018/03/23 00:39:00.000,n,159,5.4,5.04,6.12,20.4,88.6,1017.42,0,0,0,0,0.030479
2018/03/23 00:40:00.000,n,183,6.12,5.76,6.12,20.4,88.7,1017.42,0,0,0,0,0.028725
2018/03/23 00:41:00.000,n,180,6.48,6.12,7.2,20.3,88.6,1017.32,0,0,0,0,0.027847
2018/03/23 00:42:00.005,n,218,5.76,5.4,6.12,20.3,88.7,1017.32,0,0,0,0,0.023499
2018/03/23 00:43:00.002,n,185,4.68,4.32,5.04,20.4,88.8,1017.22,0,0,0,0,0.027008
2018/03/23 00:44:00.000,n,192,3.24,2.88,3.6,20.4,88.7,1017.22,0,0,0,0,0.026131
2018/03/23 00:45:00.013,n,166,5.04,3.6,5.4,20.3,88.7,1017.22,0,0,0,0,0.027008
2018/03/23 00:46:00.000,n,174,5.04,4.68,6.12,20.4,88.7,1017.22,0,0,0,0,0.027008
2018/03/23 00:47:00.000,n,169,3.96,3.24,4.68,20.4,88.7,1017.22,0,0,0,0,0.026131
2018/03/23 00:48:00.004,n,166,9,8.28,10.08,20.4,88.7,1017.32,0,0,0,0,0.027847
2018/03/23 00:49:00.001,n,165,8.28,7.92,9,20.3,88.7,1017.32,0,0,0,0,0.027847
2018/03/23 00:50:00.000,n,172,5.76,4.68,6.48,20.4,88.8,1017.32,0,0,0,0,0.029602
2018/03/23 00:51:00.000,n,228,5.04,4.32,6.12,20.4,88.7,1017.32,0,0,0,0,0.029602
2018/03/23 00:52:00.010,n,177,3.6,2.88,5.76,20.4,88.8,1017.32,0,0,0,0,0.027847
2018/03/23 00:53:00.007,n,207,2.88,1.8,3.6,20.4,88.8,1017.32,0,0,0,0,0.028725
2018/03/23 00:54:00.004,n,171,7.2,6.48,8.28,20.4,88.8,1017.32,0,0,0,0,0.026131
2018/03/23 00:55:00.001,n,231,3.6,0.72,5.04,20.4,89,1017.32,0,0,0,0,0.026131
2018/03/23 00:56:00.000,n,232,2.16,1.8,2.52,20.4,88.9,1017.22,0,0,0,0,0.026131
2018/03/23 00:57:00.000,n,237,4.68,3.6,5.76,20.4,88.9,1017.22,0,0,0,0,0.025253
2018/03/23 00:58:00.000,n,178,3.24,2.88,3.6,20.4,88.9,1017.22,0,0,0,0,0.027847
2018/03/23 00:59:00.008,n,246,6.12,5.4,6.84,20.4,88.8,1017.22,0,0,0,0,0.030479
2018/03/23 01:00:00.005,n,244,4.32,3.6,5.76,20.4,88.8,1017.12,0,0,0,0,0.031357
2018/03/23 01:01:00.002,n,216,4.68,3.6,6.12,20.5,88.9,1017.22,0,0,0,0,0.028725
2018/03/23 01:02:00.000,n,207,1.44,0.36,2.88,20.5,88.8,1017.22,0,0,0,0,0.027847
2018/03/23 01:03:00.012,n,241,2.52,2.16,3.24,20.4,88.7,1017.22,0,0,0,0,0.033073
2018/03/23 01:04:00.000,n,52,0.72,0.36,1.8,20.4,88.9,1017.22,0,0,0,0,0.032234
2018/03/23 01:05:00.000,n,245,5.04,3.6,6.12,20.4,88.8,1017.32,0,0,0,0,0.028725
2018/03/23 01:06:00.003,n,226,3.6,3.24,3.6,20.4,88.6,1017.32,0,0,0,0,0.028725
2018/03/23 01:07:00.000,n,230,5.76,5.76,6.12,20.4,88.6,1017.32,0,0,0,0,0.029602
2018/03/23 01:08:00.000,n,233,5.04,4.68,5.76,20.4,88.6,1017.32,0,0,0,0,0.028725
2018/03/23 01:09:00.000,n,229,3.96,3.6,4.68,20.4,88.7,1017.32,0,0,0,0,0.028725
2018/03/23 01:10:00.008,n,260,4.68,3.24,6.12,20.4,88.9,1017.32,0,0,0,0,0.028725
2018/03/23 01:11:00.006,n,243,5.4,4.32,6.12,20.4,88.6,1017.32,0,0,0,0,0.032234
2018/03/23 01:12:00.002,n,267,5.04,3.96,6.84,20.4,88.7,1017.22,0,0,0,0,0.033951
2018/03/23 01:13:00.000,n,239,5.76,4.68,6.48,20.3,88.7,1017.22,0,0,0,0,0.030479
2018/03/23 01:14:00.000,n,234,3.6,2.88,3.96,20.3,88.7,1017.22,0,0,0,0,0.027847
2018/03/23 01:15:00.000,n,249,4.68,4.32,4.68,20.3,88.8,1017.22,0,0,0,0,0.033073
2018/03/23 01:16:00.007,n,247,3.96,3.6,4.32,20.3,88.7,1017.22,0,0,0,0,0.033073
2018/03/23 01:17:00.004,n,207,2.88,2.52,3.24,20.3,88.8,1017.12,0,0,0,0,0.036583
2018/03/23 01:18:00.001,n,230,3.6,3.24,3.96,20.3,88.8,1017.12,0,0,0,0,0.035706
2018/03/23 01:19:00.000,n,211,2.52,1.08,3.6,20.3,88.9,1017.12,0,0,0,0,0.030479
2018/03/23 01:20:00.011,n,199,2.88,2.52,3.96,20.3,88.8,1017.02,0,0,0,0,0.031357
2018/03/23 01:21:00.008,n,291,1.8,1.8,2.16,20.3,88.9,1017.02,0,0,0,0,0.032234
2018/03/23 01:22:00.000,n,255,3.24,1.44,5.04,20.3,88.8,1017.02,0,0,0,0,0.031357
2018/03/23 01:23:00.000,n,26,1.08,0.72,1.8,20.2,88.9,1017.02,0,0,0,0,0.0383
2018/03/23 01:24:00.000,n,186,2.52,2.16,2.88,20.3,88.9,1017.02,0,0,0,0,0.032234
2018/03/23 01:25:00.000,n,232,1.44,1.08,1.8,20.2,88.9,1017.02,0,0,0,0,0.033073
2018/03/23 01:26:00.000,n,235,2.16,1.44,2.52,20.2,89,1017.02,0,0,0,0,0.040054
2018/03/23 01:27:00.009,n,254,4.32,3.24,4.68,20.2,89,1017.02,0,0,0,0,0.036583
2018/03/23 01:28:00.006,n,237,4.68,3.6,5.4,20.2,88.9,1017.02,0,0,0,0,0.032234
2018/03/23 01:29:00.003,n,246,3.96,3.24,5.04,20.2,89,1017.02,0,0,0,0,0.034828
2018/03/23 01:30:00.000,n,217,5.04,4.68,5.4,20.2,89,1017.02,0,0,0,0,0.029602
2018/03/23 01:31:00.000,n,240,5.04,4.32,5.76,20.2,88.9,1017.02,0,0,0,0,0.031357
2018/03/23 01:32:00.000,n,252,3.96,2.88,4.32,20.2,88.9,1017.02,0,0,0,0,0.031357
2018/03/23 01:33:00.000,n,250,7.2,5.76,8.64,20.2,89.2,1017.02,0,0,0,0,0.037422
2018/03/23 01:34:00.005,n,253,7.2,5.76,7.92,20.2,89.1,1017.02,0,0,0,0,0.036583
2018/03/23 01:35:00.002,n,245,4.32,3.96,4.68,20.2,89.1,1017.02,0,0,0,0,0.035706
2018/03/23 01:36:00.000,n,227,2.88,1.8,3.24,20.2,88.9,1017.02,0,0,0,0,0.031357
2018/03/23 01:37:00.000,n,241,5.04,4.32,5.4,20.2,88.9,1017.02,0,0,0,0,0.029602
2018/03/23 01:38:00.010,n,233,3.96,3.6,4.68,20.2,88.9,1017.02,0,0,0,0,0.028725
2018/03/23 01:39:00.007,n,244,3.6,2.88,3.96,20.2,88.9,1017.02,0,0,0,0,0.037422
2018/03/23 01:40:00.000,n,237,4.32,3.96,4.68,20.2,89,1017.02,0,0,0,0,0.033073
2018/03/23 01:41:00.001,n,239,4.32,3.6,4.68,20.1,89,1017.02,0,0,0,0,0.027847
2018/03/23 01:42:00.000,n,235,3.24,2.88,3.6,20.1,89,1017.02,0,0,0,0,0.033073
2018/03/23 01:43:00.000,n,237,4.32,3.6,5.4,20.1,89.1,1017.02,0,0,0,0,0.027847
2018/03/23 01:44:00.000,n,247,3.96,3.6,3.96,20.1,89.1,1017.02,0,0,0,0,0.027847
2018/03/23 01:45:00.006,n,308,1.8,1.08,2.88,20.1,89.1,1017.02,0,0,0,0,0.030479
2018/03/23 01:46:00.005,n,239,3.24,2.88,3.6,20.1,89.2,1017.02,0,0,0,0,0.028725
2018/03/23 01:47:00.002,n,248,5.04,4.68,6.12,20.1,89.2,1017.02,0,0,0,0,0.029602
2018/03/23 01:48:00.015,n,222,3.96,3.6,3.96,20.1,89.2,1017.02,0,0,0,0,0.030479
2018/03/23 01:49:00.000,n,238,3.96,2.16,5.76,20.1,89.2,1017.02,0,0,0,0,0.026131
2018/03/23 01:50:00.000,n,243,7.2,6.48,8.28,20.1,89.3,1017.02,0,0,0,0,0.026131
2018/03/23 01:51:00.000,n,247,5.4,4.68,6.48,20.1,89.3,1017.02,0,0,0,0,0.030479
2018/03/23 01:52:00.004,n,268,7.92,6.84,8.64,20.1,89.3,1017.02,0,0,0,0,0.029602
2018/03/23 01:53:00.001,n,230,2.88,2.52,3.6,20.2,89.4,1017.02,0,0,0,0,0.031357
2018/03/23 01:54:00.000,n,243,5.04,4.68,5.4,20.2,89.2,1017.02,0,0,0,0,0.027847
2018/03/23 01:55:00.011,n,241,3.96,2.16,5.04,20.2,89.3,1017.02,0,0,0,0,0.032234
2018/03/23 01:56:00.008,n,265,5.04,4.68,5.76,20.2,89.2,1017.02,0,0,0,0,0.029602
2018/03/23 01:57:00.006,n,236,5.4,4.68,5.76,20.1,89.2,1017.02,0,0,0,0,0.023499
2018/03/23 01:58:00.000,n,249,6.12,5.76,6.12,20.1,89,1017.02,0,0,0,0,0.023499
2018/03/23 01:59:00.000,n,213,2.52,2.16,3.24,20.1,89.1,1017.02,0,0,0,0,0.026131
2018/03/23 02:00:00.000,n,246,4.32,2.88,5.4,20.1,89.2,1017.02,0,0,0,0,0.032234
2018/03/23 02:01:00.000,n,225,3.24,3.24,3.6,20.1,89.3,1017.02,0,0,0,0,0.023499
2018/03/23 02:02:00.007,n,215,2.52,1.44,3.24,20.1,89.3,1017.02,0,0,0,0,0.025253
2018/03/23 02:03:00.004,n,234,3.6,2.52,5.04,20,89.2,1017.02,0,0,0,0,0.027008
2018/03/23 02:04:00.001,n,228,3.24,2.88,3.24,20,89.2,1017.02,0,0,0,0,0.025253
2018/03/23 02:05:00.000,n,158,0.72,0.36,1.44,20,89.2,1017.02,0,0,0,0,0.027847
2018/03/23 02:06:00.013,n,141,1.08,0.72,1.08,20,89.3,1017.02,0,0,0,0,0.029602
2018/03/23 02:07:00.000,n,180,2.88,2.52,3.24,20,89.3,1017.02,0,0,0,0,0.024376
2018/03/23 02:08:00.000,n,261,4.32,2.16,6.12,20,89.3,1016.92,0,0,0,0,0.023499
2018/03/23 02:09:00.000,n,278,2.16,1.8,3.24,20,89.4,1016.92,0,0,0,0,0.024376
2018/03/23 02:10:00.003,n,220,2.16,1.8,2.52,20,89.4,1016.92,0,0,0,0,0.025253
2018/03/23 02:11:00.001,n,249,7.56,6.12,9,20,89.6,1016.92,0,0,0,0,0.026131
2018/03/23 02:12:00.000,n,327,3.6,2.88,4.32,20.1,89.5,1016.92,0,0,0,0,0.027008
2018/03/23 02:13:00.012,n,158,1.08,0.72,1.8,20.1,89.4,1016.92,0,0,0,0,0.029602
2018/03/23 02:14:00.009,n,105,2.52,1.08,3.6,20,89.4,1016.92,0,0,0,0,0.027008
2018/03/23 02:15:00.005,n,236,3.96,3.6,3.96,20,89.3,1016.92,0,0,0,0,0.024376
2018/03/23 02:16:00.000,n,243,5.4,4.68,6.48,20,89.3,1017.02,0,0,0,0,0.022659
2018/03/23 02:17:00.000,n,262,6.48,4.68,8.28,20,89.2,1017.02,0,0,0,0,0.023499
2018/03/23 02:18:00.000,n,240,2.16,1.44,2.16,20,89.5,1017.02,0,0,0,0,0.023499
2018/03/23 02:19:00.000,n,223,2.88,2.52,2.88,20,89.4,1017.02,0,0,0,0,0.031357
2018/03/23 02:20:00.008,n,163,2.88,2.52,3.6,20,89.4,1017.02,0,0,0,0,0.025253
2018/03/23 02:21:00.005,n,239,4.68,4.32,5.4,20,89.4,1017.02,0,0,0,0,0.031357
2018/03/23 02:22:00.002,n,266,2.16,1.8,3.6,20,89.6,1017.02,0,0,0,0,0.026131
2018/03/23 02:23:00.000,n,214,4.32,3.96,4.68,20,89.3,1017.02,0,0,0,0,0.027008
2018/03/23 02:24:00.012,n,200,1.44,0.36,3.24,20,89.3,1017.02,0,0,0,0,0.028725
2018/03/23 02:25:00.000,n,177,2.16,2.16,2.52,20,89.2,1017.02,0,0,0,0,0.027847
2018/03/23 02:26:00.000,n,230,5.4,3.24,6.84,20,89.3,1016.92,0,0,0,0,0.024376
2018/03/23 02:27:00.003,n,225,2.88,2.52,3.6,20,89.3,1016.92,0,0,0,0,0.026131
2018/03/23 02:28:00.000,n,245,7.92,6.12,9.36,20,89.4,1016.92,0,0,0,0,0.029602
2018/03/23 02:29:00.000,n,280,1.44,0.72,2.52,20,89.5,1016.92,0,0,0,0,0.027847
2018/03/23 02:30:00.010,n,234,3.24,2.52,3.96,20,89.3,1016.92,0,0,0,0,0.024376
2018/03/23 02:31:00.008,n,165,3.24,2.88,3.6,19.9,89.2,1016.92,0,0,0,0,0.024376
2018/03/23 02:32:00.004,n,238,5.04,2.88,7.56,19.9,89.3,1016.92,0,0,0,0,0.021782
2018/03/23 02:33:00.001,n,177,2.52,1.8,3.24,19.9,89.3,1017.02,0,0,0,0,0.027847
2018/03/23 02:34:00.000,n,194,1.8,0.72,3.96,19.9,89.2,1017.02,0,0,0,0,0.024376
2018/03/23 02:35:00.000,n,171,5.76,3.96,6.48,19.9,89.2,1017.02,0,0,0,0,0.026131
2018/03/23 02:36:00.000,n,208,0.72,0.36,1.44,19.9,89.2,1017.02,0,0,0,0,0.022659
2018/03/23 02:37:00.006,n,236,3.24,2.52,3.6,19.9,89.2,1017.02,0,0,0,0,0.026131
2018/03/23 02:38:00.004,n,161,0.36,0.36,0.72,19.9,89.3,1017.02,0,0,0,0,0.027008
2018/03/23 02:39:00.001,n,203,3.24,3.24,3.96,19.9,89.2,1016.92,0,0,0,0,0.029602
2018/03/23 02:40:00.000,n,247,2.16,1.8,2.52,19.9,89.3,1016.92,0,0,0,0,0.031357
2018/03/23 02:41:00.012,n,271,1.44,1.08,1.8,19.9,89.4,1016.92,0,0,0,0,0.033951
2018/03/23 02:42:00.009,n,150,3.96,1.08,5.04,19.9,89.3,1016.92,0,0,0,0,0.025253
2018/03/23 02:43:00.000,n,239,3.96,3.96,4.68,19.9,89.1,1016.92,0,0,0,0,0.027008
2018/03/23 02:44:00.002,n,201,3.24,1.44,4.32,19.9,89.1,1016.92,0,0,0,0,0.025253
2018/03/23 02:45:00.000,n,241,6.48,4.68,7.56,19.9,89.1,1016.92,0,0,0,0,0.024376
2018/03/23 02:46:00.000,n,216,5.04,4.68,5.4,19.9,89.1,1016.92,0,0,0,0,0.027008
2018/03/23 02:47:00.000,n,257,2.52,0.72,5.76,19.9,89.1,1016.92,0,0,0,0,0.026131
2018/03/23 02:48:00.007,n,256,7.2,6.48,7.56,19.9,89.1,1016.82,0,0,0,0,0.026131
2018/03/23 02:49:00.004,n,213,2.88,1.44,3.24,19.9,89.1,1016.82,0,0,0,0,0.024376
2018/03/23 02:50:00.002,n,242,2.16,0.72,2.88,19.9,89.1,1016.92,0,0,0,0,0.026131
2018/03/23 02:51:00.000,n,201,1.8,1.08,3.24,19.9,89.4,1016.92,0,0,0,0,0.023499
2018/03/23 02:52:00.000,n,237,2.88,0.72,4.32,19.9,89.6,1016.92,0,0,0,0,0.025253
2018/03/23 02:53:00.000,n,242,1.8,0.72,2.52,20,89.5,1016.82,0,0,0,0,0.025253
2018/03/23 02:54:00.000,n,241,2.16,1.44,2.52,20,89.3,1016.82,0,0,0,0,0.025253
2018/03/23 02:55:00.004,n,228,3.96,3.6,4.68,20,89.2,1016.82,0,0,0,0,0.027008
2018/03/23 02:56:00.001,n,229,3.24,2.16,4.32,20,89.1,1016.82,0,0,0,0,0.025253
2018/03/23 02:57:00.000,n,148,1.08,0.36,1.8,20,89.2,1016.82,0,0,0,0,0.021782
2018/03/23 02:58:00.011,n,144,1.08,0.36,1.8,20,89.3,1016.82,0,0,0,0,0.027847
2018/03/23 02:59:00.007,n,122,1.8,1.8,2.16,20,89,1016.82,0,0,0,0,0.025253
2018/03/23 03:00:00.004,n,225,3.96,3.6,4.68,19.9,89,1016.82,0,0,0,0,0.027847
2018/03/23 03:01:00.001,n,241,2.88,2.16,3.24,19.9,89,1016.82,0,0,0,0,0.027847
2018/03/23 03:02:00.000,n,252,1.08,1.08,1.44,19.9,89.1,1016.72,0,0,0,0,0.026131
2018/03/23 03:03:00.000,n,155,3.96,2.52,5.4,19.9,89.1,1016.72,0,0,0,0,0.026131
2018/03/23 03:04:00.000,n,200,3.6,2.52,3.96,19.9,89,1016.72,0,0,0,0,0.030479
2018/03/23 03:05:00.006,n,178,5.04,3.96,5.76,19.9,89.1,1016.82,0,0,0,0,0.028725
2018/03/23 03:06:00.003,n,255,1.8,1.08,2.52,19.9,88.9,1016.72,0,0,0,0,0.027847
2018/03/23 03:07:00.000,n,238,5.04,2.88,5.4,19.9,89.1,1016.72,0,0,0,0,0.024376
2018/03/23 03:08:00.012,n,224,3.6,3.24,3.96,19.9,89,1016.72,0,0,0,0,0.027847
2018/03/23 03:09:00.009,n,245,4.32,2.16,6.48,19.9,89.3,1016.72,0,0,0,0,0.027008
2018/03/23 03:10:00.000,n,247,4.32,3.6,5.04,19.9,89.1,1016.72,0,0,0,0,0.026131
2018/03/23 03:11:00.000,n,252,2.52,1.8,2.88,19.9,89,1016.72,0,0,0,0,0.024376
2018/03/23 03:12:00.000,n,237,3.24,2.88,3.96,19.9,88.9,1016.72,0,0,0,0,0.023499
2018/03/23 03:13:00.000,n,119,1.44,1.08,2.16,19.9,88.9,1016.72,0,0,0,0,0.029602
2018/03/23 03:14:00.000,n,242,4.32,4.32,4.68,19.9,88.9,1016.72,0,0,0,0,0.027008
2018/03/23 03:15:00.008,n,234,1.44,0.72,2.52,19.8,89,1016.72,0,0,0,0,0.024376
2018/03/23 03:16:00.005,n,149,1.08,0.72,1.44,19.8,89,1016.72,0,0,0,0,0.020905
2018/03/23 03:17:00.002,n,89,1.08,0.72,1.44,19.8,89.1,1016.72,0,0,0,0,0.026131
2018/03/23 03:18:00.016,n,243,2.16,1.44,2.52,19.8,89.2,1016.72,0,0,0,0,0.026131
2018/03/23 03:19:00.000,n,179,2.16,2.16,2.52,19.8,89.1,1016.72,0,0,0,0,0.024376
2018/03/23 03:20:00.000,n,103,1.08,0.72,1.44,19.8,89.1,1016.72,0,0,0,0,0.027008
2018/03/23 03:21:00.000,n,161,1.44,1.08,2.16,19.8,89.1,1016.72,0,0,0,0,0.025253
2018/03/23 03:22:00.005,n,238,2.16,1.8,2.52,19.8,89.1,1016.72,0,0,0,0,0.022659
2018/03/23 03:23:00.002,n,165,6.84,5.4,7.92,19.8,89.1,1016.72,0,0,0,0,0.024376
2018/03/23 03:24:00.000,n,129,2.16,0.36,3.96,19.8,89.1,1016.72,0,0,0,0,0.024376
2018/03/23 03:25:00.012,n,201,2.16,1.8,2.16,19.8,89.2,1016.72,0,0,0,0,0.024376
2018/03/23 03:26:00.010,n,174,3.6,2.52,4.68,19.8,89.2,1016.72,0,0,0,0,0.027008
2018/03/23 03:27:00.007,n,239,5.04,4.68,5.04,19.8,89.1,1016.72,0,0,0,0,0.022659
2018/03/23 03:28:00.000,n,231,3.6,2.88,3.96,19.8,89.2,1016.72,0,0,0,0,0.025253
2018/03/23 03:29:00.000,n,190,3.24,2.52,3.6,19.8,89.1,1016.72,0,0,0,0,0.022659
2018/03/23 03:30:00.000,n,250,6.12,5.4,7.2,19.8,89.2,1016.72,0,0,0,0,0.023499
2018/03/23 03:31:00.000,n,239,3.96,3.6,4.32,19.8,89.3,1016.72,0,0,0,0,0.023499
2018/03/23 03:32:00.007,n,242,7.56,7.2,7.56,19.8,89,1016.72,0,0,0,0,0.020905
2018/03/23 03:33:00.005,n,199,5.76,5.04,6.48,19.8,89,1016.72,0,0,0,0,0.022659
2018/03/23 03:34:00.001,n,185,3.96,2.88,4.32,19.8,89,1016.72,0,0,0,0,0.021782
2018/03/23 03:35:00.000,n,239,3.96,3.6,4.68,19.8,89.1,1016.72,0,0,0,0,0.021782
2018/03/23 03:36:00.011,n,223,3.6,2.88,4.32,19.8,89.1,1016.72,0,0,0,0,0.020905
2018/03/23 03:37:00.000,n,192,2.52,1.8,2.88,19.7,89.1,1016.72,0,0,0,0,0.021782
2018/03/23 03:38:00.000,n,221,4.32,3.96,5.04,19.7,89.1,1016.82,0,0,0,0,0.023499
2018/03/23 03:39:00.002,n,234,3.6,2.52,4.68,19.7,89.3,1016.72,0,0,0,0,0.020905
2018/03/23 03:40:00.000,n,207,2.52,1.8,2.88,19.7,89.2,1016.82,0,0,0,0,0.01915
2018/03/23 03:41:00.000,n,227,3.6,3.24,3.6,19.7,89.1,1016.82,0,0,0,0,0.024376
2018/03/23 03:42:00.010,n,245,3.96,3.6,4.32,19.7,89.2,1016.82,0,0,0,0,0.021782
2018/03/23 03:43:00.007,n,234,4.32,4.32,4.68,19.7,89.2,1016.82,0,0,0,0,0.030441
2018/03/23 03:44:00.000,n,206,2.52,1.8,3.96,19.7,89.3,1016.82,0,0,0,0,0.030441
2018/03/23 03:45:00.014,n,221,2.16,1.8,2.52,19.7,89.3,1016.82,0,0,0,0,0.03479
2018/03/23 03:46:00.000,n,221,3.24,2.88,3.6,19.7,89.4,1016.82,0,0,0,0,0.033073
2018/03/23 03:47:00.000,n,242,4.68,4.32,5.04,19.7,89.2,1016.82,0,0,0,0,0.029564
2018/03/23 03:48:00.000,n,237,3.96,3.6,3.96,19.7,89.3,1016.82,0,0,0,0,0.026932
2018/03/23 03:49:00.001,n,247,3.6,3.24,3.96,19.7,89.2,1016.82,0,0,0,0,0.032158
2018/03/23 03:50:00.000,n,247,2.88,2.88,3.24,19.7,89.2,1016.82,0,0,0,0,0.028725
2018/03/23 03:51:00.000,n,242,5.76,5.4,6.12,19.7,89.4,1016.82,0,0,0,0,0.026932
2018/03/23 03:52:00.008,n,246,4.32,3.96,5.04,19.7,89.4,1016.82,0,0,0,0,0.026932
2018/03/23 03:53:00.006,n,245,5.76,5.4,6.48,19.7,89.3,1016.82,0,0,0,0,0.026093
2018/03/23 03:54:00.003,n,239,5.76,5.4,6.48,19.7,89.3,1016.72,0,0,0,0,0.027847
2018/03/23 03:55:00.000,n,234,5.04,4.68,5.4,19.7,89.3,1016.72,0,0,0,0,0.030441
2018/03/23 03:56:00.000,n,246,5.4,4.68,6.48,19.7,89.3,1016.72,0,0,0,0,0.028725
2018/03/23 03:57:00.000,n,238,5.04,4.68,5.4,19.7,89.3,1016.72,0,0,0,0,0.028725
2018/03/23 03:58:00.000,n,267,6.48,5.76,6.84,19.7,89.5,1016.72,0,0,0,0,0.028725
2018/03/23 03:59:00.005,n,251,3.96,2.88,5.04,19.7,89.4,1016.72,0,0,0,0,0.026093
2018/03/23 04:00:00.004,n,262,5.76,3.24,7.2,19.7,89.3,1016.72,0,0,0,0,0.026093
2018/03/23 04:01:00.001,n,252,4.68,4.32,5.04,19.7,89.2,1016.72,0,0,0,0,0.025215
2018/03/23 04:02:00.000,n,247,3.24,2.16,3.96,19.7,89.1,1016.72,0,0,0,0,0.026932
2018/03/23 04:03:00.011,n,250,4.68,4.32,5.04,19.6,89.2,1016.82,0,0,0,0,0.027847
2018/03/23 04:04:00.000,n,268,3.96,2.88,4.32,19.6,89.4,1016.82,0,0,0,0,0.025215
2018/03/23 04:05:00.000,n,238,4.68,3.96,5.04,19.6,89.4,1016.82,0,0,0,0,0.026932
2018/03/23 04:06:00.002,n,232,5.4,4.32,6.12,19.6,89.3,1016.82,0,0,0,0,0.027847
2018/03/23 04:07:00.000,n,245,5.04,4.68,6.12,19.6,89.3,1016.82,0,0,0,0,0.029564
2018/03/23 04:08:00.000,n,242,5.04,4.32,5.4,19.6,89.4,1016.92,0,0,0,0,0.024338
2018/03/23 04:09:00.010,n,220,3.24,2.16,4.32,19.6,89.4,1016.92,0,0,0,0,0.025215
2018/03/23 04:10:00.007,n,234,4.68,3.6,5.04,19.6,89.4,1016.92,0,0,0,0,0.028725
2018/03/23 04:11:00.004,n,246,5.76,5.04,6.84,19.6,89.5,1016.92,0,0,0,0,0.022583
2018/03/23 04:12:00.001,n,221,5.04,4.32,5.76,19.6,89.4,1016.92,0,0,0,0,0.026932
2018/03/23 04:13:00.000,n,245,5.04,4.68,5.4,19.6,89.4,1016.92,0,0,0,0,0.024338
2018/03/23 04:14:00.000,n,238,4.32,3.24,4.68,19.6,89.5,1016.92,0,0,0,0,0.026093
2018/03/23 04:15:00.000,n,237,2.52,2.16,2.88,19.6,89.5,1016.92,0,0,0,0,0.026093
2018/03/23 04:16:00.006,n,232,2.16,1.8,2.88,19.6,89.5,1016.92,0,0,0,0,0.024338
2018/03/23 04:17:00.003,n,201,1.08,0.72,1.8,19.6,89.5,1016.92,0,0,0,0,0.021744
2018/03/23 04:18:00.000,n,258,5.76,3.24,7.92,19.6,89.7,1016.92,0,0,0,0,0.026093
2018/03/23 04:19:00.000,n,224,2.52,1.8,2.88,19.7,89.7,1016.92,0,0,0,0,0.025215
2018/03/23 04:20:00.009,n,238,3.6,3.24,3.96,19.7,89.6,1016.92,0,0,0,0,0.028725
2018/03/23 04:21:00.008,n,260,5.04,3.6,6.12,19.7,89.7,1016.92,0,0,0,0,0.021744
2018/03/23 04:22:00.000,n,250,6.12,4.68,7.56,19.7,89.6,1016.92,0,0,0,0,0.025215
2018/03/23 04:23:00.001,n,239,3.6,3.24,3.96,19.7,89.6,1016.92,0,0,0,0,0.023499
2018/03/23 04:24:00.000,n,240,5.4,5.04,5.76,19.7,89.4,1016.92,0,0,0,0,0.030441
2018/03/23 04:25:00.000,n,254,6.48,5.76,7.56,19.6,89.3,1017.02,0,0,0,0,0.028725
2018/03/23 04:26:00.000,n,258,6.84,6.12,6.84,19.6,89.4,1017.02,0,0,0,0,0.026932
2018/03/23 04:27:00.006,n,252,5.4,5.04,6.12,19.6,89.3,1017.02,0,0,0,0,0.029564
2018/03/23 04:28:00.003,n,229,5.4,4.68,5.76,19.6,89.4,1017.12,0,0,0,0,0.028725
2018/03/23 04:29:00.000,n,265,7.92,4.68,11.52,19.6,89.6,1017.12,0,0,0,0,0.024338
2018/03/23 04:30:00.014,n,243,6.48,5.76,7.2,19.6,89.6,1017.12,0,0,0,0,0.028725
2018/03/23 04:31:00.000,n,255,5.04,3.6,7.92,19.6,89.5,1017.12,0,0,0,0,0.030441
2018/03/23 04:32:00.000,n,287,6.84,5.76,11.88,19.6,89.7,1017.12,0,0,0,0,0.033073
2018/03/23 04:33:00.005,n,276,1.08,0.36,2.16,19.6,89.6,1017.12,0,0,0,0,0.026932
2018/03/23 04:34:00.002,n,248,0.72,0.36,1.44,19.6,89.8,1017.12,0,0,0,0,0.026932
2018/03/23 04:35:00.000,n,258,1.44,0.72,1.8,19.6,89.7,1017.12,0,0,0,0,0.023499
2018/03/23 04:36:00.000,n,231,2.52,1.8,3.24,19.7,89.6,1017.12,0,0,0,0,0.022583
2018/03/23 04:37:00.010,n,134,1.8,1.08,2.16,19.7,89.6,1017.12,0,0,0,0,0.025215
2018/03/23 04:38:00.007,n,213,2.16,1.44,2.88,19.6,89.6,1017.22,0,0,0,0,0.022583
2018/03/23 04:39:00.005,n,235,3.6,3.24,3.96,19.6,89.5,1017.22,0,0,0,0,0.026932
2018/03/23 04:40:00.000,n,234,1.8,0.36,2.88,19.6,89.5,1017.32,0,0,0,0,0.029564
2018/03/23 04:41:00.000,n,238,2.88,1.8,3.96,19.6,89.6,1017.32,0,0,0,0,0.021744
2018/03/23 04:42:00.000,n,201,3.96,3.6,4.32,19.6,89.7,1017.32,0,0,0,0,0.020866
2018/03/23 04:43:00.000,n,250,5.4,4.32,5.76,19.6,89.7,1017.32,0,0,0,0,0.024338
2018/03/23 04:44:00.007,n,231,3.24,3.24,3.6,19.6,89.7,1017.32,0,0,0,0,0.024338
2018/03/23 04:45:00.004,n,266,2.88,2.52,3.24,19.6,89.7,1017.32,0,0,0,0,0.023499
2018/03/23 04:46:00.001,n,285,3.24,2.16,3.96,19.6,89.7,1017.32,0,0,0,0,0.023499
2018/03/23 04:47:00.014,n,226,3.24,2.88,3.96,19.6,89.7,1017.32,0,0,0,0,0.031319
2018/03/23 04:48:00.011,n,261,5.76,5.04,7.2,19.6,89.8,1017.32,0,0,0,0,0.026093
2018/03/23 04:49:00.000,n,265,6.84,6.12,7.56,19.7,89.8,1017.32,0,0,0,0,0.021744
2018/03/23 04:50:00.000,n,260,3.96,3.6,5.4,19.7,89.9,1017.32,0,0,0,0,0.026093
2018/03/23 04:51:00.005,n,236,4.32,3.96,4.68,19.7,90,1017.32,0,0,0,0,0.026093
2018/03/23 04:52:00.001,n,265,6.12,5.4,6.84,19.7,89.8,1017.32,0,0,0,0,0.026932
2018/03/23 04:53:00.000,n,256,4.32,3.24,5.4,19.7,89.8,1017.32,0,0,0,0,0.021744
2018/03/23 04:54:00.000,n,233,2.88,0.72,4.32,19.7,89.8,1017.42,0,0,0,0,0.024338
2018/03/23 04:55:00.010,n,249,6.12,5.76,6.84,19.7,89.8,1017.42,0,0,0,0,0.023499